{"data":{"norad_id":63149,"intl_designator":"2025-043T","name":"STARLINK-32939","alt_names":[],"object_type":"PAYLOAD","status":"ACTIVE","operator":null,"country":"US","launch_date":"2025-03-03","launch_site_code":"AFETR","launch_vehicle":null,"mission":null,"orbit_class":"UNKNOWN","rcs_meters":null,"size_class":null,"mass_kg":null,"dimensions":null,"purposes":["comms"],"wikipedia_slug":null,"has_3d_model":false,"image_url":null,"decayed_at":null,"tle_current":{"epoch":"2026-05-24T20:36:05.528448Z","epoch_age_seconds":97394,"freshness":"FRESH","line1":"1 63149U 25043T   26144.85839732  .00014781  00000+0  54519-3 0  9996","line2":"2 63149  42.9970 305.8798 0001748 271.6528  88.4123 15.27602500 69017","mean_motion":15.276025,"eccentricity":0.0001748,"inclination_deg":42.997,"raan_deg":305.8798,"arg_perigee_deg":271.6528,"mean_anomaly_deg":88.4123,"bstar":0.00054519,"rev_number":6901,"period_min":94.265360262241,"perigee_km":481.78240021935,"apogee_km":484.18104732518,"semimajor_km":6861.1187237723,"source":"CELESTRAK","updated_at":"2026-05-25T13:38:19.917491Z"}}}